Location: Brabourne
(51.1333°N, 1.0000°E)
Time: 21:57:43
(UTC+00:00)

NOSS 3-1 (A) - Pass Details

Date: 29 October 2021
Orbit: 721 x 1491 km, 63.4° (Epoch: 22 November)

Event Time Altitude Azimuth Distance (km) Brightness Sun altitude
Rises 19:36:33 0° 259° (W) 3,336 7.3 -28.8°
Reaches altitude 10° 19:38:59 10° 268° (W) 2,488 6.5 -29.2°
Maximum altitude 19:44:23 39° 337° (NNW) 1,413 4.5 -30.0°
Enters shadow 19:46:50 29° 20° (NNE) 1,774 4.8 -30.4°
